Regional Weather Roundup
Issued by NWS Columbia, SC

Home | Current Version | Previous Version | Text Only | Print | Product List | Glossary On
Versions: 1 2 3 4 5 6 7 8 9 10 11 12 13 14 15 16 17 18 19 20 21 22 23 24 25 26 27 28 29 30 31 32 33 34 35 36 37 38 39 40 41 42 43 44 45 46 47 48 49
000
ASUS42 KCAE 011210
RWRCAE
REGIONAL WEATHER ROUNDUP
NATIONAL WEATHER SERVICE COLUMBIA SC
800 AM EDT WED OCT 01 2014

NOTE: "FAIR" INDICATES FEW OR NO CLOUDS BELOW 12,000 FEET WITH NO
SIGNIFICANT WEATHER AND/OR OBSTRUCTIONS TO VISIBILITY.

NOT ALL STATIONS ARE QUALITY CONTROLLED BY THE NATIONAL
WEATHER SERVICE. USE DATA WITH CAUTION...ESPECIALLY
DEWPOINT OBSERVATIONS.

SCZ001>056-GAZ040-063>065-077-011300-
...UPSTATE SOUTH CAROLINA...

CITY           SKY/WX    TMP DP  RH WIND       PRES   REMARKS
ANDERSON       CLEAR     59  58  96 CALM      29.99R
6HR MIN TEMP:  58; 6HR MAX TEMP:  63;

LIBERTY        FAIR      55  55 100 CALM      29.99R
6HR MIN TEMP:  55; 6HR MAX TEMP:  85;

SPARTANBURG    FAIR      61 N/A N/A CALM      29.99R
CLEMSON        CLEAR     66  61  84 N3        30.00R
6HR MIN TEMP:  65; 6HR MAX TEMP:  69;

GREENVILLE     CLEAR     61  57  87 CALM      30.00R
6HR MIN TEMP:  61; 6HR MAX TEMP:  67;

GREENWOOD      MOCLDY    61  59  93 CALM      30.00R
6HR MIN TEMP:  59; 6HR MAX TEMP:  62;

GREER          CLEAR     60  58  92 CALM      29.98R
6HR MIN TEMP:  59; 6HR MAX TEMP:  65;

ROCK HILL      PTCLDY    57  57 100 CALM      29.99R FOG
6HR MIN TEMP:  57; 6HR MAX TEMP:  61;

CHESTER          N/A     61  59  94 CALM      30.04R
LAURENS        FAIR      61 N/A N/A N3        29.99R


...CENTRAL SOUTH CAROLINA...

CITY           SKY/WX    TMP DP  RH WIND       PRES   REMARKS
COLUMBIA APT   PTCLDY    61  58  90 W3        29.97R
6HR MIN TEMP:  59; 6HR MAX TEMP:  64;

COLUMBIA OWENS CLEAR     62  59  90 CALM      29.98R
6HR MIN TEMP:  61; 6HR MAX TEMP:  64;

DARLINGTON     CLEAR     59  55  88 CALM      29.98R
6HR MIN TEMP:  57; 6HR MAX TEMP:  61;

FLORENCE       MOCLDY    60  59  96 N3        29.97R
6HR MIN TEMP:  58; 6HR MAX TEMP:  63;

MCENTIRE ANGB  PTCLDY    58  58 100 CALM      29.97R
6HR MIN TEMP:  57; 6HR MAX TEMP:  61;

ORANGEBURG     CLEAR     61  58  90 CALM      29.97R
6HR MIN TEMP:  60; 6HR MAX TEMP:  64;

SUMTER SHAW    CLEAR     60  57  90 E1        29.96R
6HR MIN TEMP:  58; 6HR MAX TEMP:  63;

NEWBERRY       FAIR      61  61 100 CALM      30.01R
AIKEN          FAIR      59  59 100 CALM      30.02R
BARNWELL       FAIR      57  57 100 CALM      29.97R
MANNING        FAIR      59 N/A N/A CALM      29.96R
CAMDEN         FAIR      59  57  94 CALM      29.98R FOG
LANCASTER      HVY RAIN  59  59 100 CALM      29.98R
WINNSBORO      FAIR      63  61  94 CALM      29.97R


...EASTERN AND COASTAL SOUTH CAROLINA...

CITY           SKY/WX    TMP DP  RH WIND       PRES   REMARKS
MYRTLE BEACH   CLEAR     64  61  88 N6        29.95R
N MYRTLE BCH   CLEAR     63  62  97 N3        29.95R FOG
6HR MIN TEMP:  62; 6HR MAX TEMP:  65;

CONWAY         FAIR      57  57 100 CALM      29.96R FOG
MARION         FOG       59  59 100 CALM      29.97R VSB 1/4
HARTSVILLE     FAIR      61  59  94 CALM      29.98R
FLORENCE       MOCLDY    60  59  96 N3        29.97R
6HR MIN TEMP:  58; 6HR MAX TEMP:  63;

DARLINGTON     CLEAR     59  55  88 CALM      29.98R
6HR MIN TEMP:  57; 6HR MAX TEMP:  61;

CHARLESTON APT PTCLDY    65  62  90 N3        29.96R
6HR MIN TEMP:  63; 6HR MAX TEMP:  67;

MOUNT PLEASANT FAIR      63  63 100 CALM      29.95R FOG
WALTERBORO     SUNNY     61 N/A N/A CALM      29.97R
BEAUFORT       CLEAR     65  63  93 CALM      29.95S
6HR MIN TEMP:  63; 6HR MAX TEMP:  68;



...EASTERN GEORGIA...

CITY           SKY/WX    TMP DP  RH WIND       PRES   REMARKS
AUGUSTA BUSH F CLEAR     57  57 100 CALM      29.97R
6HR MIN TEMP:  56; 6HR MAX TEMP:  61;

AUGUSTA DANIEL CLEAR     66  63  90 NW7       29.98R
6HR MIN TEMP:  65; 6HR MAX TEMP:  69;

THOMSON        CLOUDY    59  59 100 CALM      30.03R VSB 3/4
6HR MIN TEMP:  58; 6HR MAX TEMP:  63;

WASHINGTON     FAIR      63  63 100 CALM      29.99R
CLAXTON        FAIR      63  63 100 CALM      29.97R
SYLVANIA       SUNNY     63  62  99 CALM      29.98R
6HR MIN TEMP:  63; 6HR MAX TEMP:  67;

STATESBORO     CLEAR     61  61 100 CALM      29.97R
6HR MIN TEMP:  61; 6HR MAX TEMP:  64;

SAVANNAH       PTCLDY    66  63  90 CALM      29.96R
6HR MIN TEMP:  64; 6HR MAX TEMP:  68;



...SOUTHERN NORTH CAROLINA...

CITY           SKY/WX    TMP DP  RH WIND       PRES   REMARKS
CHARLOTTE      PTCLDY    60  58  92 CALM      29.99R
6HR MIN TEMP:  56; 6HR MAX TEMP:  64;

MONROE         CLEAR     59  57  93 CALM      29.98R
6HR MIN TEMP:  59; 6HR MAX TEMP:  63;

WADESBORO      FOG       59  58  97 CALM      29.98R VSB<1/4
6HR MIN TEMP:  58; 6HR MAX TEMP:  60;

ROCKINGHAM     FOG       57  57  99 CALM      29.98R VSB 1/4
6HR MIN TEMP:  56; 6HR MAX TEMP:  61;

RUTHERFORDTON  CLEAR     56  55  97 NW3       30.01R
6HR MIN TEMP:  56; 6HR MAX TEMP:  62;

ASHEVILLE      PTCLDY    52  50  93 CALM      30.07R FOG
6HR MIN TEMP:  50; 6HR MAX TEMP:  56;


$$


USA.gov is the U.S. government's official web portal to all federal, state and local government web resources and services.